Weather reports worldwide

Advertisment
Napoli/Capodichino, Italy (16289): temperature & dewpoint: 22.05.2020 22:00:00 - 28.05.2020 22:00:00 (CEST)Napoli/Capodichino, Italy (16289): wind speed: 22.05.2020 22:00:00 - 28.05.2020 22:00:00 (CEST)Napoli/Capodichino, Italy (16289): wind direction: 22.05.2020 22:00:00 - 28.05.2020 22:00:00 (CEST)Napoli/Capodichino, Italy (16289): reduced air pressure: 22.05.2020 22:00:00 - 28.05.2020 22:00:00 (CEST)Napoli/Capodichino, Italy (16289): visibility: 22.05.2020 22:00:00 - 28.05.2020 22:00:00 (CEST)Napoli/Capodichino, Italy (16289): precipitation: 22.05.2020 22:00:00 - 28.05.2020 22:00:00 (CEST)
Date & Time tt [°C] td [°C] ff [km/h] ff [kn] dd ppp [hPa] vv [km] rr [mm]
28.05.2020 22:00:00 19,0 11,0 4 2 NW - 10 -
28.05.2020 21:00:00 19,0 10,0 9 5 NW - 10 -
28.05.2020 20:00:00 20,4 8,5 13 7 NW 1020,9 10 -
28.05.2020 19:00:00 21,0 8,0 13 7 WNW - 10 -
28.05.2020 18:00:00 22,0 8,0 15 8 WNW - 10 -
28.05.2020 17:00:00 22,2 6,9 21 11 WNW 1021,5 10 0,0
28.05.2020 16:00:00 23,0 7,0 15 8 W - 10 -
28.05.2020 15:00:00 22,0 7,0 15 8 SW - 10 -
28.05.2020 14:00:00 22,6 7,2 18 10 SSW 1022,3 10 -
28.05.2020 13:00:00 24,0 2,0 13 7 N - 10 -
28.05.2020 12:00:00 22,0 5,0 9 5 E - 10 -
28.05.2020 11:00:00 21,7 4,1 8 4 - 1024,2 10 0,0
28.05.2020 10:00:00 21,0 5,0 5 3 - - 10 -
28.05.2020 09:00:00 19,0 7,0 8 4 NE - 10 -
28.05.2020 08:00:00 17,4 5,9 5 3 NNE 1025,1 10 -
28.05.2020 07:00:00 15,0 6,0 5 3 NNE - 10 -
28.05.2020 06:00:00 14,0 6,0 8 4 NE - 10 -
28.05.2020 05:00:00 13,9 5,4 5 3 NNW 1025,0 10 0,0
28.05.2020 04:00:00 14,0 4,0 5 3 NNE - 10 -
28.05.2020 03:00:00 15,0 4,0 5 3 ENE - 10 -
28.05.2020 02:00:00 15,4 4,5 4 2 - 1026,0 10 -
28.05.2020 01:00:00 16,0 5,0 9 5 NE - 10 -
28.05.2020 00:00:00 17,0 5,0 15 8 ENE - 10 -
27.05.2020 23:00:00 16,7 4,4 15 8 NE 1026,1 10 0,0
27.05.2020 22:00:00 18,0 3,0 8 4 NNE - 10 -
27.05.2020 21:00:00 19,0 3,0 16 9 ENE - 10 -
27.05.2020 20:00:00 20,3 2,9 28 15 ENE 1024,4 10 -
27.05.2020 19:00:00 22,0 4,0 28 15 ENE - 10 -
27.05.2020 18:00:00 23,0 4,0 29 16 ENE - 10 -
27.05.2020 17:00:00 23,3 4,6 26 14 ENE 1024,5 10 0,0
27.05.2020 16:00:00 23,0 6,0 31 17 NE - 10 -
27.05.2020 15:00:00 24,0 5,0 31 17 NE - 10 -
27.05.2020 14:00:00 23,7 5,9 26 14 NE 1024,9 10 -
27.05.2020 13:00:00 21,0 5,0 39 21 NE - 10 -
27.05.2020 12:00:00 22,0 7,0 26 14 NE - 10 -
27.05.2020 11:00:00 21,4 7,1 22 12 NE 1025,2 10 0,0
27.05.2020 10:00:00 20,0 7,0 31 17 ENE - 10 -
27.05.2020 09:00:00 19,0 6,0 29 16 ENE - 10 -
27.05.2020 08:00:00 17,7 6,6 18 10 NE 1024,9 10 -
27.05.2020 07:00:00 17,0 7,0 16 9 NNE - 10 -
27.05.2020 06:00:00 15,0 6,0 13 7 NE - 10 -
27.05.2020 05:00:00 15,6 6,0 15 8 ENE 1024,1 10 0,0
27.05.2020 04:00:00 16,0 5,0 16 9 ENE - 10 -
27.05.2020 03:00:00 16,0 5,0 16 9 ENE - 10 -
27.05.2020 02:00:00 17,1 4,2 22 12 ENE 1024,2 10 -
27.05.2020 01:00:00 17,0 4,0 9 5 E - 10 -
27.05.2020 00:00:00 17,0 4,0 16 9 ENE - 10 -
26.05.2020 23:00:00 17,2 3,9 13 7 E 1024,9 10 0,0
26.05.2020 22:00:00 19,0 4,0 18 10 ENE - 10 -
26.05.2020 21:00:00 20,0 4,0 18 10 E - 10 -
26.05.2020 20:00:00 20,6 4,0 16 9 E 1023,2 10 -
26.05.2020 19:00:00 22,0 5,0 16 9 E - 10 -
26.05.2020 18:00:00 22,0 6,0 22 12 ENE - 10 -
26.05.2020 17:00:00 23,9 4,1 26 14 NE 1022,5 10 0,0
26.05.2020 16:00:00 25,0 5,0 24 13 NE - 10 -
26.05.2020 15:00:00 25,0 5,0 18 10 ENE - 10 -
26.05.2020 14:00:00 24,3 5,4 24 13 ENE 1023,5 10 -
26.05.2020 13:00:00 24,0 6,0 29 16 ENE - 10 -
26.05.2020 12:00:00 23,0 8,0 24 13 ENE - 10 -
26.05.2020 11:00:00 22,4 7,4 31 17 NE 1024,1 10 0,0
26.05.2020 10:00:00 21,0 7,0 18 10 E - 10 -
26.05.2020 09:00:00 21,0 5,0 16 9 E - 10 -
26.05.2020 08:00:00 20,1 6,5 13 7 ENE 1024,0 10 -
26.05.2020 07:00:00 18,0 5,0 13 7 ENE - 10 -
26.05.2020 06:00:00 16,0 2,0 11 6 NE - 10 -
26.05.2020 05:00:00 15,1 2,3 13 7 ENE 1022,9 10 0,0
26.05.2020 04:00:00 17,0 2,0 8 4 NNE - 10 -
26.05.2020 03:00:00 18,0 2,0 9 5 NE - 10 -
26.05.2020 02:00:00 18,8 2,6 13 7 NE 1023,2 10 -
26.05.2020 01:00:00 19,0 2,0 9 5 NNE - 10 -
26.05.2020 00:00:00 19,0 2,0 9 5 NE - 10 -
25.05.2020 23:00:00 19,8 2,1 11 6 ENE 1023,2 10 0,0
25.05.2020 22:00:00 20,0 2,0 9 5 ENE - 10 -
25.05.2020 21:00:00 22,0 2,0 13 7 E - 10 -
25.05.2020 20:00:00 23,0 2,6 18 10 ENE 1021,7 10 -
25.05.2020 19:00:00 25,0 2,0 16 9 ENE - 10 -
25.05.2020 18:00:00 26,0 2,0 18 10 ENE - 10 -
25.05.2020 17:00:00 26,2 1,3 15 8 E 1021,9 10 0,0
25.05.2020 16:00:00 26,0 4,0 18 10 ENE - 10 -
25.05.2020 15:00:00 26,0 4,0 16 9 ENE - 10 -
25.05.2020 14:00:00 26,3 5,6 18 10 NE 1023,1 10 -
25.05.2020 13:00:00 26,0 5,0 15 8 E - 10 -
25.05.2020 12:00:00 25,0 7,0 18 10 ENE - 10 -
25.05.2020 11:00:00 24,1 4,3 16 9 E 1024,1 10 0,0
25.05.2020 10:00:00 24,0 4,0 16 9 ENE - 10 -
25.05.2020 09:00:00 22,0 7,0 21 11 ENE - 10 -
25.05.2020 08:00:00 21,1 5,7 16 9 ENE 1024,0 10 -
25.05.2020 07:00:00 20,0 9,0 16 9 E - 10 -
25.05.2020 06:00:00 19,0 11,0 13 7 E - 10 -
25.05.2020 05:00:00 18,8 10,8 11 6 E 1023,4 10 0,0
25.05.2020 04:00:00 18,0 12,0 13 7 NE - 10 -
25.05.2020 03:00:00 19,0 12,0 8 4 NE - 10 -
25.05.2020 02:00:00 18,2 12,8 4 2 NNW 1023,5 10 -
25.05.2020 01:00:00 19,0 12,0 2 1 - - 10 -
25.05.2020 00:00:00 19,0 13,0 5 3 NE - 10 -
24.05.2020 23:00:00 20,0 13,0 5 3 ENE 1024,3 10 0,0
24.05.2020 22:00:00 20,0 15,0 4 2 - - 10 -
24.05.2020 21:00:00 20,0 15,0 5 3 SSW - 10 -
24.05.2020 20:00:00 20,9 14,5 11 6 SSW 1023,6 10 -
24.05.2020 19:00:00 22,0 14,0 13 7 SSW - 10 -
24.05.2020 18:00:00 24,0 14,0 11 6 SW - 10 -
24.05.2020 17:00:00 23,6 12,1 13 7 SSW 1023,3 10 0,0
24.05.2020 16:00:00 24,0 13,0 15 8 SW - 10 -
24.05.2020 15:00:00 24,0 12,0 13 7 SSW - 10 -
24.05.2020 14:00:00 23,3 15,3 15 8 SW 1024,3 10 -
24.05.2020 13:00:00 22,0 16,0 15 8 SSW - 10 -
24.05.2020 12:00:00 22,0 14,0 13 7 SSW - 10 -
24.05.2020 11:00:00 22,0 15,5 13 7 SW 1025,4 10 0,0
24.05.2020 10:00:00 21,0 16,0 13 7 SW - 10 -
24.05.2020 09:00:00 20,0 16,0 9 5 SW - 10 -
24.05.2020 08:00:00 19,3 16,1 11 6 SSW 1024,6 10 -
24.05.2020 07:00:00 18,0 15,0 5 3 SSW - 10 -
24.05.2020 06:00:00 16,0 14,0 4 2 - - 10 -
24.05.2020 05:00:00 16,7 14,6 4 2 S 1024,4 10 0,0
24.05.2020 04:00:00 17,0 15,0 5 3 SSW - 10 -
24.05.2020 03:00:00 17,0 16,0 5 3 SSW - 10 -
24.05.2020 02:00:00 17,8 16,1 8 4 SSW 1025,2 10 -
24.05.2020 01:00:00 18,0 16,0 5 3 SSW - 10 -
24.05.2020 00:00:00 19,0 17,0 4 2 - - 10 -
23.05.2020 23:00:00 18,9 16,7 5 3 SSW 1025,8 10 0,0
23.05.2020 22:00:00 19,0 16,0 8 4 SSW - 10 -
23.05.2020 21:00:00 20,0 16,0 9 5 SSW - 10 -
23.05.2020 20:00:00 20,8 15,7 11 6 SSW 1025,3 10 -
23.05.2020 19:00:00 22,0 16,0 11 6 SSW - 10 -
23.05.2020 18:00:00 23,0 16,0 11 6 SSW - 10 -
23.05.2020 17:00:00 22,8 16,3 15 8 SSW 1025,6 10 0,0
23.05.2020 16:00:00 23,0 16,0 15 8 SW - 10 -
23.05.2020 15:00:00 23,0 15,0 18 10 SSW - 10 -
23.05.2020 14:00:00 23,3 16,1 16 9 SSW 1026,8 10 -
23.05.2020 13:00:00 23,0 15,0 15 8 SSW - 10 -
23.05.2020 12:00:00 22,0 15,0 15 8 SSW - 10 -
23.05.2020 11:00:00 22,2 15,2 13 7 SW 1026,6 10 0,0
23.05.2020 10:00:00 23,0 12,0 4 2 - - 10 -
23.05.2020 09:00:00 21,0 12,0 4 2 - - 10 -
23.05.2020 08:00:00 19,1 11,7 5 3 E 1025,9 10 -
23.05.2020 07:00:00 17,0 11,0 5 3 N - 10 -
23.05.2020 06:00:00 14,0 11,0 4 2 - - 10 -
23.05.2020 05:00:00 14,9 11,6 4 2 NNE 1025,4 10 0,0
23.05.2020 04:00:00 15,0 12,0 2 1 - - 10 -
23.05.2020 03:00:00 16,0 13,0 4 2 NE - 10 -
23.05.2020 02:00:00 16,4 13,2 2 1 - 1025,2 10 -
23.05.2020 01:00:00 17,0 13,0 2 1 - - 10 -
23.05.2020 00:00:00 18,0 14,0 2 1 - - 10 -
22.05.2020 23:00:00 18,5 14,0 2 1 - 1025,7 10 0,0
22.05.2020 22:00:00 19,0 14,0 11 6 NW - 10 -

tt = temperature
td = dewpoint
ff = wind speed
dd = wind direction
ppp = reduced air pressure
vv = visibility
rr = precipitation

Next stations